Skip Page Navigation
NASA JPL Caltech
NASA Logo - Jet Propulsion Laboratory + View the NASA Portal
+ Near-Earth Object (NEO) Program
Search JPL
JPL Home Earth Solar System Stars & Galaxies Technology
JPL Solar System Dynamics
BODIES ORBITS EPHEMERIDES TOOLS PHYSICAL DATA DISCOVERY FAQ SITE MAP
JPL Small-Body Database Browser
Search: [ help ]  
54 Alexandra
Classification: Main-belt Asteroid          SPK-ID: 2000054
Ephemeris | Orbit Diagram | Orbital Elements | Physical Parameters | Discovery Circumstances | Close-Approach Data ]

[ show orbit diagram ]
Orbital Elements at Epoch 2456400.5 (2013-Apr-18.0) TDB
Reference: JPL 138 (heliocentric ecliptic J2000)
 Element Value Uncertainty (1-sigma)   Units 
e .1982062265216002 5.3933e-08  
a 2.709570221210682 7.2254e-09 AU
q 2.172516532169215 1.4675e-07 AU
i 11.80195577536678 6.3247e-06 deg
node 313.3442435519104 2.4856e-05 deg
peri 345.3938654925377 2.7607e-05 deg
M 251.8912475626529 1.4336e-05 deg
tp 2456889.723598499242
(2014-Aug-20.22359850)
6.5721e-05 JED
period 1629.104873463368
4.46
6.5163e-06
1.784e-08
d
yr
n .2209802486408772 8.839e-10 deg/d
Q 3.246623910252149 8.6575e-09 AU
  Orbit Determination Parameters
   # obs. used (total)      1251  
   data-arc span      54582 days (149.44 yr)  
   first obs. used      1863-10-24  
   last obs. used      2013-04-02  
   planetary ephem.      DE405  
   SB-pert. ephem.      SB405-CPV-2  
   condition code      0  
   fit RMS      .5743  
   data source      ORB  
   producer      Otto Matic  
   solution date      2013-Apr-29 12:31:50  

Additional Information
 Earth MOID = 1.15913 AU 
 T_jup = 3.305 
[ show covariance matrix ]

Ephemeris | Orbit Diagram | Orbital Elements | Physical Parameters | Discovery Circumstances | Close-Approach Data ]

Physical Parameter Table
Parameter Symbol Value Units Sigma Reference Notes
absolute magnitude H 7.66 mag n/a IRAS-A-FPA-3-RDR-IMPS-V6.0 IRAS observations used: 14
diameter diameter 165.75 km 3.4 IRAS-A-FPA-3-RDR-IMPS-V6.0 IRAS observations used: 14
rotation period rot_per 7.024 h n/a Asteroid Lightcurve DataBase (Rev. 2013-May-01) Published Reference List:
[Van Houten-Groeneveld, I.; van Houten, C.J.; Zappala, V. (1979) Astron. Astrophys. Suppl. Ser. 35, 223-232.]
[Di Martino, M.; Zappala, V.; De Sanctis, G.; Cacciatori, S. (1987) Icarus 69, 338-353.]
[Bel'skaya, I.N.; Dovgopol, A.N.; Erikson, A.; Lagerkvist, C.-I.; Oja, T. (1993) Astron. Astrophys. Suppl. Ser. 101, 507-511.]
[Behrend, R. (2005) Observatoire de Geneve web site, http://obswww.unige.ch/~behrend/page_cou.html]
[Torppa, J.; Hentunen, V.-P.; Paakkonen, P.; Kehusmaa, P.; Muinonen, K. (2008) Icarus 198, 91-107.]
[Warner, B.D.; Durech, J.; Faurerbach, M.; Marks, S. (2008) Minor Planet Bul. 35, 167-171.]
[Higgins, D.; Warner, B.D. (2009) Minor Planet Bul. 36, 159-160.]
[Durech, J.; Kaasalainen, M.; Herald, D.; Dunham, D.; et al. (2011) Icarus 214, 652-670.]
[Durech, J. (2011) Database of Asteroid Models from Inversion Techniques (DAMIT). http://astro.troja.mff.cuni.cz/projects/aster oids3D/web.php]
geometric albedo albedo 0.0555   0.002 IRAS-A-FPA-3-RDR-IMPS-V6.0 IRAS observations used: 14
B-V BV .727 mag .027 EAR-A-5-DDR-UBV-MEAN-VALUES-V1.1 #obs=9; phase (min.=4.77, mean=11.55, max.=25.49) deg.
U-B UB .357 mag .037 EAR-A-5-DDR-UBV-MEAN-VALUES-V1.1 #obs=7; phase (min.=4.77, mean=11.92, max.=25.49) deg.
Tholen spectral type spec_T C   n/a EAR-A-5-DDR-TAXONOMY-V4.0 used 7 color indices; used ground-based radiometric albedo
SMASSII spectral type spec_B C   n/a EAR-A-5-DDR-TAXONOMY-V4.0 based on a high-resolution spectrum by Xu et al. (1995) or Bus and Binzel (2002)

54 Alexandra          Discovered 1858-Sep-10 by Goldschmidt, H. at Paris
Reference: DISCOVERY.DBLast Updated: 2003-08-29

[ show close-approach data ]
Alternate Designations
 1950 BT = 1974 HG1 
Ephemeris | Orbit Diagram | Orbital Elements | Physical Parameters | Discovery Circumstances | Close-Approach Data ]
ABOUT SSD CREDITS/AWARDS PRIVACY/COPYRIGHT GLOSSARY LINKS
FirstGov 2013-May-20 00:02 UT
(server date/time)  
NASA Home Page
Site Manager:   Donald K. Yeomans
Webmaster  Alan B. Chamberlin